[[{"header":{"parameterUnit":"m.s-1","parameterCategory":2,"la1":30.2991,"la2":30.254,"lo1":-89.0895,"lo2":-89.0444,"dy":0.0017,"dx":0.0017,"nx":28,"ny":28,"refTime":"2025-09-18T03:00:00:Z","depth":"0","parameterNumber":2,"parameterNumberName":"U-component_of_CURRENTS"},"data":[0,0,0,0,0,0,0,0,0,0,0,0,0,0,0,0,0,0,0,0,0,0,0,0,0,0,0,0,0,0,0,0,0,0,0,0,0,0,0,0,0,0,0,0,0,0,0,0,0,0,0,0,0,0,0,0,0,0,0.3277,0.3278,0,0.3334,0.3335,0.3335,0.3344,0.3344,0.3343,0.3343,0.332,0.3319,0.3319,0,0,0,0,0,0,0,0,0,0,0,0,0,0.3165,0.3166,0.3277,0.3278,0.3279,0.3334,0.3335,0.3335,0.3344,0.3344,0.3343,0.3343,0.332,0.3319,0.3319,0,0,0,0,0,0,0,0,0,0,0,0,0,0.3213,0.3167,0.3277,0.3293,0.3296,0.3334,0.3335,0.3335,0.3344,0.3344,0.3343,0.3343,0.332,0.3319,0.3319,0.3317,0,0,0.3316,0.3316,0,0,0,0,0,0,0,0,0.321,0.3216,0.329,0.3292,0.3295,0.3336,0.3287,0.3327,0.3344,0.3321,0.3343,0.3343,0.3321,0.332,0.3326,0.3316,0.3315,0.3316,0.3316,0.3315,0.3315,0,0,0,0,0,0,0,0.3206,0.3214,0.3295,0.3291,0.3294,0.3295,0.3301,0.3294,0.3316,0.3323,0.3325,0.3338,0.3321,0.3327,0.3325,0.3314,0.3316,0.3316,0.3315,0.3315,0.3351,0.3353,0,0,0,0,0,0,0.321,0.3211,0.3293,0.3297,0.3256,0.3297,0.3304,0.3319,0.3318,0.3319,0.3338,0.3339,0.3328,0.3326,0.3324,0.3377,0.3315,0.3315,0.3314,0.335,0.3351,0.3353,0,0,0,0,0,0,0.3207,0.3216,0.3291,0.3258,0.3269,0.33,0.3316,0.332,0.3331,0.3331,0.333,0.3346,0.3328,0.3325,0.3339,0.3374,0.3314,0.3314,0.3348,0.335,0.3352,0.3447,0,0,0,0,0,0,0.3203,0.3215,0.3222,0.3259,0.3271,0.3322,0.3317,0.3322,0.3341,0.3342,0.3337,0.3335,0.3327,0.3341,0.3339,0.3372,0.3313,0.3346,0.3349,0.3352,0.3442,0.3452,0.3461,0,0,0,0,0,0.3199,0.3215,0.3222,0.3232,0.3281,0.3323,0.3329,0.3347,0.3342,0.3353,0.3358,0.3335,0.3356,0.3342,0.3338,0.3372,0.3345,0.3348,0.3351,0.3438,0.345,0.346,0,0,0,0,0,0,0.3176,0.3219,0.3227,0.3256,0.329,0.3327,0.3341,0.335,0.3363,0.3361,0.3351,0.3351,0.3386,0.3358,0.3342,0.339,0.3347,0.335,0.3414,0.3425,0.3434,0.3487,0.3312,0,0,0,0,0,0.3174,0.3191,0.3237,0.326,0.3279,0.3307,0.3324,0.334,0.3361,0.3367,0.3368,0.3371,0.3396,0.3393,0.3406,0.3417,0.3458,0.3437,0.3447,0.3455,0.3495,0.359,0.3613,0.3364,0.3364,0.3364,0,0,0.3171,0.3197,0.3207,0.3255,0.328,0.3321,0.3316,0.3351,0.3388,0.336,0.3399,0.3408,0.3411,0.3447,0.3457,0.3425,0.3546,0.3459,0.3466,0.3503,0.3596,0.3621,0.3643,0.3366,0.3365,0.3365,0,0,0.3182,0.32,0.3222,0.3261,0.3309,0.3327,0.3339,0.338,0.3402,0.3432,0.3447,0.3489,0.3476,0.3524,0.3536,0.36,0.3604,0.3579,0.3655,0.3746,0.3769,0.3789,0.3873,0.39,0.3568,0.3568,0.3568,0,0.3174,0.3218,0.3236,0.3283,0.3321,0.3333,0.338,0.3408,0.3449,0.3484,0.3449,0.3528,0.3529,0.3624,0.3656,0.3628,0.3672,0.3612,0.3763,0.3784,0.3803,0.3884,0.3913,0.3573,0.3573,0.3572,0.3572,0,0.321,0.3257,0.3279,0.3337,0.3374,0.3417,0.3467,0.3498,0.3505,0.3541,0.3624,0.3644,0.3696,0.3699,0.3698,0.3836,0.3823,0.3778,0.3742,0.3835,0.3913,0.3941,0.358,0.3578,0.3577,0.3576,0,0,0.3177,0.328,0.3291,0.3341,0.3412,0.3448,0.3513,0.3585,0.3642,0.3673,0.3765,0.3826,0.3847,0.3868,0.388,0.3959,0.4133,0.3931,0.3933,0.4029,0.4344,0.4233,0.4253,0.4112,0.4117,0.4122,0.4345,0,0.3204,0.329,0.3336,0.3428,0.3485,0.3535,0.3597,0.3666,0.3707,0.3794,0.3855,0.3934,0.3906,0.3943,0.4029,0.412,0.4212,0.4078,0.4228,0.4233,0.4136,0.4283,0.4068,0.4241,0.4372,0.4377,0.4381,0,0.3239,0.3293,0.3379,0.3498,0.3526,0.3574,0.3679,0.3742,0.3865,0.3904,0.3999,0.4044,0.4203,0.4139,0.4361,0.4275,0.4337,0.4386,0.4394,0.4286,0.4176,0.4168,0.4287,0.412,0.4424,0.442,0.4417,0,0.3224,0.3337,0.3399,0.3443,0.3561,0.3609,0.3663,0.3773,0.3853,0.3992,0.4068,0.4214,0.4316,0.4424,0.452,0.4463,0.4747,0.4664,0.4629,0.4621,0.4468,0.4437,0.4458,0.4837,0.4837,0.4836,0.4835,0,0.3261,0.3327,0.3395,0.3444,0.3533,0.3608,0.3715,0.379,0.3922,0.4039,0.4132,0.4252,0.4397,0.4549,0.4605,0.472,0.4816,0.4706,0.4693,0.449,0.4459,0.4326,0.4267,0.4844,0.4843,0.4841,0.484,0,0.3295,0.3326,0.3419,0.3511,0.3542,0.3612,0.375,0.3835,0.3944,0.4106,0.4164,0.4353,0.4536,0.4657,0.4855,0.4831,0.4791,0.494,0.4688,0.4641,0.4391,0.4345,0.4303,0.4182,0.4952,0.4951,0.495,0,0.3334,0.3378,0.346,0.3509,0.3562,0.3659,0.3733,0.384,0.3929,0.4154,0.4239,0.4459,0.457,0.4809,0.483,0.4924,0.4781,0.4765,0.4608,0.4403,0.4345,0.4192,0.4083,0.4457,0.4452,0.4448,0.4445,0,0.3436,0.3446,0.3515,0.3569,0.3638,0.3711,0.3811,0.3867,0.4001,0.412,0.426,0.4358,0.4572,0.4567,0.4686,0.4698,0.4495,0.4682,0.455,0.405,0.3812,0.3677,0.4285,0.4409,0.4413,0.4415,0.4417,0.4419,0.3516,0.3551,0.3589,0.3641,0.37,0.3706,0.3703,0.38,0.3873,0.3962,0.416,0.4216,0.4302,0.4414,0.4412,0.4216,0.4263,0.4064,0.4063,0.3955,0.3714,0.4242,0.4279,0.4281,0.4284,0.4286,0.4287,0,0.3576,0.3589,0.3655,0.364,0.3638,0.3675,0.3709,0.365,0.3636,0.38,0.387,0.3884,0.3861,0.389,0.3778,0.362,0.3461,0.3506,0.3244,0.3196,0.374,0.3586,0.3373,0.3373,0.3373,0.3374,0.3374,0.3374,0.3608,0.3633,0.3611,0.355,0.3532,0.3421,0.3384,0.3319,0.3356,0.3318,0.3309,0.3389,0.3462,0.3429,0.322,0.3136,0.2894,0.2761,0.2797,0.3155,0.3205,0.3253,0.3091,0.2778,0.2778,0.2079,0.2074,0.207]},{"header":{"parameterUnit":"m.s-1","parameterCategory":2,"la1":30.2991,"la2":30.254,"lo1":-89.0895,"lo2":-89.0444,"dy":0.0017,"dx":0.0017,"nx":28,"ny":28,"refTime":"2025-09-18T03:00:00:Z","depth":"0","parameterNumber":3,"parameterNumberName":"V-component_of_CURRENTS"},"data":[0,0,0,0,0,0,0,0,0,0,0,0,0,0,0,0,0,0,0,0,0,0,0,0,0,0,0,0,0,0,0,0,0,0,0,0,0,0,0,0,0,0,0,0,0,0,0,0,0,0,0,0,0,0,0,0,0,0,0.0136,0.0136,0,0.0102,0.0101,0.0101,0.0053,0.0052,0.0051,0.0051,-0.0003,-0.0004,-0.0005,0,0,0,0,0,0,0,0,0,0,0,0,0,0.0141,0.0141,0.0136,0.0136,0.0135,0.0102,0.0101,0.0101,0.0053,0.0052,0.0051,0.005,-0.0003,-0.0004,-0.0005,0,0,0,0,0,0,0,0,0,0,0,0,0,0.0125,0.0141,0.0136,0.0108,0.0105,0.0102,0.0101,0.01,0.0053,0.0052,0.0051,0.005,-0.0003,-0.0004,-0.0005,0.0009,0,0,-0.0009,-0.0009,0,0,0,0,0,0,0,0,0.0126,0.0125,0.0113,0.011,0.0107,0.0081,0.0083,0.0069,0.0053,0.0072,0.0051,0.0049,0.0025,0.0021,0.0016,0.0007,0.0005,-0.0009,-0.0009,-0.001,-0.001,0,0,0,0,0,0,0,0.0127,0.0126,0.0121,0.0112,0.0109,0.0091,0.0088,0.008,0.0054,0.007,0.0067,0.0065,0.0023,0.0017,0.0014,0.0004,-0.0009,-0.001,-0.001,-0.0011,-0.0009,-0.0008,0,0,0,0,0,0,0.0136,0.0127,0.0122,0.012,0.0115,0.0092,0.0088,0.009,0.0054,0.0048,0.0066,0.0063,0.002,0.0016,0.0012,0.0036,-0.001,-0.0011,-0.0012,-0.001,-0.0009,-0.0008,0,0,0,0,0,0,0.0136,0.0136,0.0124,0.0123,0.0121,0.0093,0.0095,0.009,0.0082,0.0051,0.0044,0.0064,0.0019,0.0014,0.0006,0.0033,-0.0011,-0.0013,-0.0011,-0.001,-0.0009,0.0078,0,0,0,0,0,0,0.0137,0.0137,0.0142,0.0124,0.0121,0.0129,0.0096,0.009,0.0083,0.0078,0.0047,0.0041,0.0017,0.0008,0.0005,0.0031,-0.0013,-0.0012,-0.001,-0.0009,0.0074,0.0082,0.0089,0,0,0,0,0,0.0137,0.0154,0.0143,0.0142,0.0129,0.013,0.0128,0.0103,0.0084,0.009,0.0064,0.0042,0.0014,0.0008,0.0004,0.003,-0.0012,-0.0011,-0.0009,0.0071,0.0081,0.0089,0,0,0,0,0,0,0.0165,0.0151,0.0137,0.015,0.0143,0.0123,0.0126,0.0109,0.0094,0.0086,0.0052,0.0045,0.0048,0.0026,0.0019,0.0033,-0.0002,-0.0001,0.006,0.0068,0.0075,0.012,-0.0014,0,0,0,0,0,0.0173,0.0179,0.0164,0.0175,0.0172,0.0149,0.0146,0.0131,0.0115,0.0106,0.0084,0.0062,0.0054,0.0049,0.0035,0.0046,0.0049,0.0058,0.0065,0.0072,0.0104,0.0129,0.0143,-0.0003,-0.0003,-0.0003,0,0,0.0189,0.0181,0.0185,0.0181,0.017,0.0183,0.0145,0.0146,0.0161,0.0104,0.0115,0.0087,0.0061,0.0071,0.0071,0.0055,0.0111,0.0074,0.008,0.0109,0.0133,0.0147,0.016,-0.0002,-0.0002,-0.0002,0,0,0.0229,0.0215,0.0233,0.0231,0.0222,0.0209,0.0212,0.0195,0.019,0.0194,0.016,0.0158,0.0132,0.0133,0.0127,0.0168,0.0147,0.0149,0.0227,0.025,0.0263,0.0275,0.0289,0.0301,0.0155,0.0155,0.0155,0,0.0252,0.0273,0.0241,0.026,0.0273,0.0226,0.026,0.0249,0.0233,0.0254,0.0207,0.0212,0.0173,0.0221,0.0219,0.019,0.0191,0.0197,0.0263,0.0274,0.0285,0.0297,0.0309,0.016,0.0159,0.0159,0.0158,0,0.0301,0.0324,0.0337,0.0345,0.0351,0.0373,0.0356,0.0364,0.0344,0.0341,0.0373,0.0328,0.0345,0.0316,0.0273,0.0333,0.0305,0.0268,0.0248,0.0305,0.0313,0.0324,0.0166,0.0164,0.0163,0.0162,0,0,0.0351,0.0373,0.0378,0.0419,0.0405,0.0431,0.045,0.0483,0.0536,0.0496,0.0578,0.0528,0.0513,0.0506,0.0461,0.0461,0.0506,0.0394,0.0393,0.0422,0.0556,0.0511,0.0518,0.0476,0.0479,0.0481,0.0529,0,0.0409,0.0481,0.0466,0.0548,0.0592,0.057,0.0611,0.0629,0.063,0.0689,0.0656,0.07,0.0583,0.0606,0.0588,0.0543,0.0542,0.0497,0.0485,0.0486,0.045,0.0532,0.0476,0.0513,0.054,0.0542,0.0543,0,0.0464,0.0515,0.0603,0.0692,0.0711,0.0751,0.0836,0.0867,0.091,0.0916,0.0938,0.091,0.0929,0.0812,0.0779,0.0754,0.0667,0.0607,0.0607,0.0552,0.0463,0.046,0.0532,0.0346,0.056,0.0559,0.0558,0,0.0537,0.0619,0.0706,0.0729,0.0802,0.0861,0.0906,0.095,0.1018,0.1081,0.1148,0.1132,0.1176,0.1067,0.092,0.0863,0.0874,0.0784,0.0665,0.066,0.0607,0.0593,0.0515,0.0764,0.0764,0.0764,0.0763,0,0.0613,0.0691,0.076,0.0815,0.0954,0.0967,0.111,0.1143,0.1229,0.1353,0.129,0.1395,0.1241,0.1212,0.1027,0.0903,0.0964,0.0716,0.0686,0.0631,0.062,0.0449,0.0345,0.0765,0.0765,0.0765,0.0764,0,0.0685,0.0715,0.084,0.0949,0.0993,0.1099,0.1242,0.1344,0.1405,0.1572,0.1611,0.1636,0.1605,0.1423,0.1283,0.1082,0.0826,0.0861,0.0802,0.0764,0.0453,0.0357,0.0289,0.0216,0.0757,0.0756,0.0756,0,0.0734,0.0801,0.0943,0.1026,0.1086,0.1233,0.1336,0.1424,0.1537,0.1727,0.1829,0.1867,0.1901,0.168,0.1345,0.106,0.0852,0.0798,0.0668,0.0467,0.0338,0.0271,0.0209,0.0627,0.0625,0.0624,0.0623,0,0.0853,0.0892,0.0993,0.1141,0.127,0.1415,0.1573,0.169,0.1822,0.1975,0.2163,0.2216,0.2025,0.1738,0.134,0.1104,0.0657,0.0763,0.0582,0.0269,0.017,0.0074,0.0554,0.0612,0.0613,0.0614,0.0615,0.0615,0.0947,0.1032,0.1139,0.1279,0.1416,0.1574,0.1708,0.1882,0.2087,0.2327,0.2378,0.248,0.2029,0.1493,0.1189,0.0559,0.0599,0.033,0.0245,0.0209,0.0094,0.055,0.055,0.055,0.0551,0.0552,0.0552,0,0.1059,0.1135,0.1269,0.1427,0.1559,0.1614,0.1845,0.1984,0.2232,0.2455,0.2614,0.2393,0.1862,0.1303,0.0471,0.0089,-0.0051,-0.0118,-0.0242,-0.027,0.0157,0.0103,-0.0026,-0.0026,-0.0026,-0.0025,-0.0025,-0.0025,0.1123,0.1252,0.1297,0.1507,0.1612,0.1801,0.1931,0.2149,0.2334,0.2553,0.2589,0.259,0.2057,0.0695,-0.0197,-0.0385,-0.0633,-0.0689,-0.0763,-0.0522,-0.0488,-0.0455,-0.0531,-0.079,-0.0791,-0.1173,-0.1177,-0.118]}],[{"header":{"parameterUnit":"m.s-1","parameterCategory":2,"la1":30.2991,"la2":30.254,"lo1":-89.0895,"lo2":-89.0444,"dy":0.0017,"dx":0.0017,"nx":28,"ny":28,"refTime":"2025-09-18T03:00:00:Z","depth":"2","parameterNumber":2,"parameterNumberName":"U-component_of_CURRENTS"},"data":[0,0,0,0,0,0,0,0,0,0,0,0,0,0,0,0,0,0,0,0,0,0,0,0,0,0,0,0,0,0,0,0,0,0,0,0,0,0,0,0,0,0,0,0,0,0,0,0,0,0,0,0,0,0,0,0,0,0,0.2629,0.263,0,0.269,0.269,0.2689,0.2706,0.2707,0.2708,0.2708,0.272,0.272,0.2719,0,0,0,0,0,0,0,0,0,0,0,0,0,0.255,0.255,0.2628,0.263,0.2632,0.269,0.269,0.2689,0.2706,0.2707,0.2708,0.2709,0.272,0.272,0.2719,0,0,0,0,0,0,0,0,0,0,0,0,0,0.2583,0.255,0.2628,0.2657,0.2661,0.269,0.269,0.2689,0.2706,0.2707,0.2708,0.2709,0.2721,0.272,0.2719,0.2692,0,0,0.2717,0.2717,0,0,0,0,0,0,0,0,0.2581,0.2584,0.2651,0.2655,0.266,0.2703,0.2667,0.2692,0.2705,0.2675,0.2708,0.271,0.2717,0.2717,0.2708,0.2692,0.2693,0.2717,0.2717,0.2717,0.2716,0,0,0,0,0,0,0,0.2579,0.2582,0.264,0.2653,0.2658,0.2676,0.268,0.2671,0.2678,0.2678,0.2683,0.2709,0.2717,0.2709,0.2709,0.2693,0.2717,0.2717,0.2716,0.2716,0.276,0.2761,0,0,0,0,0,0,0.2594,0.258,0.2638,0.2643,0.2637,0.2677,0.2682,0.2677,0.2679,0.2685,0.2708,0.271,0.2709,0.271,0.271,0.2782,0.2717,0.2716,0.2716,0.2758,0.276,0.2762,0,0,0,0,0,0,0.2591,0.2597,0.2636,0.2625,0.2633,0.2679,0.2673,0.2678,0.2689,0.2705,0.2707,0.2718,0.271,0.271,0.273,0.2779,0.2716,0.2715,0.2757,0.2759,0.2761,0.286,0,0,0,0,0,0,0.2588,0.2594,0.2605,0.2625,0.2634,0.2668,0.2674,0.2679,0.2709,0.2712,0.2714,0.2715,0.2711,0.2731,0.273,0.2777,0.2715,0.2755,0.2758,0.276,0.2855,0.2865,0.2874,0,0,0,0,0,0.2584,0.2605,0.2604,0.2613,0.2642,0.267,0.2674,0.2704,0.2709,0.2715,0.2727,0.2716,0.2749,0.2732,0.2729,0.2778,0.2753,0.2757,0.276,0.285,0.2863,0.2874,0,0,0,0,0,0,0.258,0.261,0.2609,0.2637,0.2657,0.2678,0.2702,0.2709,0.272,0.2732,0.2725,0.2727,0.2769,0.275,0.2731,0.2799,0.2753,0.2756,0.2823,0.2835,0.2844,0.2874,0.2714,0,0,0,0,0,0.2583,0.2596,0.2625,0.2643,0.2656,0.2672,0.2692,0.2711,0.2728,0.2734,0.274,0.2753,0.2776,0.2787,0.2795,0.2818,0.2841,0.285,0.286,0.2869,0.2892,0.2987,0.3008,0.2773,0.2773,0.2773,0,0,0.2586,0.2606,0.2614,0.2643,0.2655,0.2682,0.2683,0.2722,0.2754,0.2733,0.2772,0.2785,0.2789,0.2833,0.2849,0.2826,0.2943,0.2873,0.2881,0.2899,0.2993,0.3016,0.3037,0.2776,0.2775,0.2775,0,0,0.2591,0.2612,0.262,0.2653,0.2697,0.2707,0.2721,0.2751,0.2775,0.2806,0.2821,0.2867,0.2867,0.2909,0.2922,0.2985,0.2993,0.2984,0.306,0.3152,0.3173,0.3192,0.3233,0.3255,0.2989,0.2989,0.2989,0,0.2595,0.26,0.2629,0.2661,0.2706,0.2717,0.2752,0.2774,0.2812,0.2854,0.2831,0.2917,0.2911,0.3009,0.3033,0.3013,0.305,0.3015,0.3169,0.3188,0.3205,0.3243,0.3266,0.2994,0.2994,0.2993,0.2993,0,0.2606,0.2626,0.2642,0.2674,0.2731,0.2759,0.2818,0.2859,0.2881,0.2916,0.3013,0.3026,0.3086,0.3094,0.3077,0.3211,0.3191,0.3173,0.3145,0.3236,0.3268,0.3291,0.3002,0.3,0.2998,0.2997,0,0,0.2576,0.2626,0.2637,0.2677,0.2748,0.2804,0.2869,0.2942,0.3009,0.3054,0.315,0.3203,0.3235,0.3253,0.3265,0.334,0.3475,0.3314,0.3316,0.3365,0.3662,0.3466,0.347,0.3498,0.3503,0.3507,0.3629,0,0.2562,0.2617,0.2653,0.2732,0.278,0.2853,0.2918,0.3017,0.3072,0.3164,0.3236,0.3318,0.3289,0.3338,0.3414,0.3471,0.3541,0.3442,0.3557,0.356,0.3385,0.3492,0.324,0.3313,0.365,0.3654,0.3656,0,0.2578,0.2613,0.2676,0.2793,0.2823,0.2881,0.3041,0.31,0.3234,0.3287,0.34,0.3445,0.3583,0.3526,0.3699,0.3644,0.3665,0.3691,0.3697,0.3499,0.3406,0.3279,0.334,0.3693,0.369,0.3687,0.3685,0,0.2594,0.2659,0.271,0.2754,0.2864,0.2938,0.3007,0.3152,0.3225,0.3388,0.3465,0.3612,0.3711,0.3788,0.3821,0.3792,0.3979,0.3939,0.3783,0.3768,0.3566,0.3523,0.4062,0.4062,0.4062,0.4061,0.4061,0,0.2597,0.265,0.2725,0.2767,0.2869,0.2976,0.3097,0.3186,0.3318,0.342,0.3538,0.362,0.3791,0.389,0.3894,0.39,0.4043,0.3824,0.3805,0.3584,0.3544,0.3878,0.3855,0.4066,0.4065,0.4064,0.4063,0,0.2612,0.2637,0.2719,0.2829,0.2877,0.2976,0.3127,0.3201,0.3341,0.3482,0.3546,0.37,0.3824,0.3933,0.4064,0.3986,0.4005,0.3959,0.3655,0.3596,0.3715,0.3696,0.3829,0.3824,0.3819,0.3815,0.3812,0,0.2611,0.2638,0.2768,0.2825,0.2868,0.3005,0.3073,0.3203,0.327,0.3485,0.3528,0.3715,0.376,0.3859,0.3822,0.3827,0.392,0.3544,0.3424,0.3732,0.3702,0.369,0.3677,0.3205,0.3197,0.3191,0.3186,0,0.2596,0.264,0.2705,0.2789,0.287,0.2969,0.3076,0.311,0.326,0.3367,0.3436,0.349,0.3608,0.3473,0.3493,0.3438,0.3522,0.3402,0.388,0.3264,0.3143,0.3112,0.3122,0.3127,0.3133,0.3137,0.3141,0.3143,0.2584,0.2604,0.2651,0.2735,0.2826,0.2863,0.2868,0.2946,0.2985,0.3041,0.3201,0.3189,0.3237,0.3092,0.2996,0.2945,0.3161,0.3024,0.3046,0.3075,0.2942,0.2815,0.2712,0.2716,0.2719,0.2721,0.2723,0,0.2511,0.2522,0.2585,0.2629,0.2669,0.2779,0.28,0.2747,0.2695,0.2784,0.2811,0.2606,0.2526,0.2594,0.2425,0.2381,0.2391,0.2286,0.2305,0.2364,0.2416,0.2251,0.1839,0.1835,0.1833,0.183,0,0,0.2443,0.2455,0.2453,0.244,0.2509,0.248,0.2467,0.2366,0.2355,0.2234,0.2205,0.2375,0.2506,0.214,0.2091,0.1945,0.2138,0.1868,0.2585,0.2668,0.2717,0.2854,0.2665,0,0,0,0,0]},{"header":{"parameterUnit":"m.s-1","parameterCategory":2,"la1":30.2991,"la2":30.254,"lo1":-89.0895,"lo2":-89.0444,"dy":0.0017,"dx":0.0017,"nx":28,"ny":28,"refTime":"2025-09-18T03:00:00:Z","depth":"2","parameterNumber":3,"parameterNumberName":"V-component_of_CURRENTS"},"data":[0,0,0,0,0,0,0,0,0,0,0,0,0,0,0,0,0,0,0,0,0,0,0,0,0,0,0,0,0,0,0,0,0,0,0,0,0,0,0,0,0,0,0,0,0,0,0,0,0,0,0,0,0,0,0,0,0,0,-0.0007,-0.0007,0,-0.0042,-0.0042,-0.0043,-0.0076,-0.0076,-0.0077,-0.0077,-0.0128,-0.0129,-0.013,0,0,0,0,0,0,0,0,0,0,0,0,0,-0.0001,-0.0001,-0.0006,-0.0007,-0.0007,-0.0042,-0.0042,-0.0043,-0.0076,-0.0077,-0.0077,-0.0077,-0.0128,-0.0129,-0.013,0,0,0,0,0,0,0,0,0,0,0,0,0,-0.0017,-0.0001,-0.0006,-0.0027,-0.003,-0.0041,-0.0042,-0.0043,-0.0076,-0.0077,-0.0077,-0.0078,-0.0128,-0.0129,-0.0131,-0.0129,0,0,-0.0135,-0.0136,0,0,0,0,0,0,0,0,-0.0016,-0.0018,-0.0024,-0.0026,-0.0028,-0.0054,-0.0059,-0.0072,-0.0076,-0.0059,-0.0077,-0.0078,-0.0104,-0.0108,-0.0114,-0.0132,-0.0134,-0.0135,-0.0136,-0.0137,-0.0138,0,0,0,0,0,0,0,-0.0015,-0.0016,-0.0021,-0.0024,-0.0027,-0.0046,-0.0049,-0.0062,-0.0079,-0.0061,-0.0063,-0.0066,-0.0106,-0.0112,-0.0115,-0.0135,-0.0135,-0.0137,-0.0138,-0.0138,-0.0165,-0.0165,0,0,0,0,0,0,-0.0007,-0.0015,-0.002,-0.0022,-0.0023,-0.0046,-0.0049,-0.0046,-0.0079,-0.0084,-0.0065,-0.0067,-0.0109,-0.0114,-0.0117,-0.0107,-0.0137,-0.0139,-0.0139,-0.0165,-0.0165,-0.0165,0,0,0,0,0,0,-0.0006,-0.0007,-0.0019,-0.0019,-0.0022,-0.0045,-0.0042,-0.0047,-0.0053,-0.0082,-0.0087,-0.0066,-0.011,-0.0115,-0.0128,-0.011,-0.0139,-0.0141,-0.0166,-0.0165,-0.0165,-0.0094,0,0,0,0,0,0,-0.0006,-0.0006,-0.0,-0.0018,-0.0022,-0.0017,-0.0041,-0.0047,-0.0053,-0.0056,-0.0084,-0.009,-0.0111,-0.0126,-0.013,-0.0113,-0.0142,-0.0166,-0.0165,-0.0165,-0.0096,-0.0091,-0.0087,0,0,0,0,0,-0.0006,0.0008,0.0,-0.0,-0.0013,-0.0017,-0.002,-0.0039,-0.0052,-0.0048,-0.0073,-0.0089,-0.0126,-0.0127,-0.0132,-0.0114,-0.0166,-0.0166,-0.0165,-0.0099,-0.0092,-0.0087,0,0,0,0,0,0,0.0018,0.0006,-0.0003,0.0007,-0.0001,-0.0022,-0.0019,-0.0034,-0.005,-0.0055,-0.0085,-0.0092,-0.01,-0.0119,-0.0119,-0.0123,-0.0149,-0.0149,-0.0097,-0.0091,-0.0086,-0.0059,-0.0143,0,0,0,0,0,0.0026,0.0031,0.0016,0.0026,0.0023,0.0002,-0.0002,-0.0015,-0.0032,-0.004,-0.006,-0.0084,-0.0101,-0.0105,-0.0127,-0.0123,-0.0141,-0.0118,-0.0112,-0.0108,-0.0091,-0.0098,-0.0091,-0.0163,-0.0163,-0.0163,0,0,0.0038,0.0033,0.0035,0.0031,0.0022,0.003,-0.0002,-0.0003,0.0006,-0.0042,-0.0039,-0.007,-0.01,-0.0101,-0.0105,-0.0112,-0.0102,-0.0107,-0.0103,-0.0088,-0.0097,-0.009,-0.0083,-0.0163,-0.0163,-0.0163,0,0,0.0065,0.0061,0.0071,0.0071,0.0062,0.0052,0.0055,0.0036,0.0029,0.0024,-0.0009,-0.0022,-0.0052,-0.006,-0.007,-0.0049,-0.0081,-0.0064,-0.0007,-0.0014,-0.0007,-0.0002,-0.003,-0.0028,-0.0054,-0.0053,-0.0053,0,0.0081,0.0095,0.0075,0.009,0.0102,0.0067,0.0091,0.0079,0.0059,0.0065,0.0033,0.0006,-0.0026,-0.0009,-0.0011,-0.0033,-0.0055,-0.0024,-0.0005,0.0,0.0005,-0.0025,-0.0024,-0.005,-0.005,-0.0051,-0.0051,0,0.0116,0.013,0.014,0.0148,0.0158,0.0172,0.0161,0.0164,0.0145,0.0133,0.0134,0.0089,0.0083,0.0061,0.0028,0.0049,0.0017,-0.0003,-0.0014,0.0017,-0.0018,-0.0017,-0.0045,-0.0046,-0.0047,-0.0048,0,0,0.0146,0.0161,0.0165,0.0193,0.0195,0.0215,0.0231,0.0247,0.0274,0.0235,0.027,0.0222,0.0199,0.0186,0.0147,0.0132,0.0127,0.0081,0.0079,0.0064,0.0095,0.0019,0.0012,0.011,0.0111,0.0112,0.0053,0,0.018,0.0231,0.0224,0.0283,0.0316,0.0307,0.0337,0.0347,0.0336,0.0356,0.0315,0.0324,0.0248,0.0254,0.0225,0.0163,0.0135,0.0144,0.0058,0.0055,-0.0006,0.0013,0.0053,-0.0001,0.0053,0.0053,0.0053,0,0.0215,0.0252,0.0315,0.0377,0.0391,0.0422,0.0484,0.0503,0.0511,0.0506,0.05,0.0461,0.0449,0.0371,0.0289,0.0298,0.0202,0.0136,0.0132,0.0042,-0.0018,-0.0021,-0.0002,0.0054,0.0054,0.0054,0.0054,0,0.0262,0.0317,0.0378,0.0398,0.0455,0.0495,0.0529,0.0555,0.0592,0.0613,0.0642,0.06,0.0608,0.0493,0.0341,0.0325,0.0227,0.0193,0.003,0.0023,0.0032,0.0023,0.0123,0.0123,0.0123,0.0123,0.0123,0,0.0303,0.0352,0.0412,0.045,0.0545,0.0567,0.0653,0.0677,0.0722,0.0779,0.0734,0.0756,0.0639,0.0558,0.0392,0.0214,0.0269,0.0046,0.001,0.0052,0.0047,0.0077,0.0073,0.0121,0.0121,0.0122,0.0122,0,0.0328,0.036,0.0447,0.0534,0.0566,0.0641,0.0736,0.079,0.0836,0.0912,0.0932,0.0903,0.0806,0.0647,0.0471,0.0302,0.0125,0.0035,0.0078,0.0046,-0.009,-0.009,-0.0127,-0.013,-0.0132,-0.0134,-0.0136,0,0.0339,0.0379,0.0508,0.0563,0.0601,0.0705,0.0766,0.0839,0.0905,0.0979,0.1022,0.0977,0.0936,0.0655,0.0376,0.0106,0.0074,-0.0065,-0.0095,-0.008,-0.0112,-0.0108,-0.0105,-0.0059,-0.006,-0.006,-0.0061,0,0.0351,0.0398,0.0481,0.0598,0.0684,0.0786,0.089,0.0974,0.1061,0.1144,0.1207,0.1186,0.0933,0.0685,0.0316,0.0115,-0.0014,-0.0095,-0.0056,-0.0016,-0.0025,-0.0053,-0.005,-0.0068,-0.0068,-0.0067,-0.0067,-0.0066,0.0363,0.043,0.0527,0.0648,0.0736,0.0858,0.0965,0.1085,0.1226,0.1353,0.1315,0.1304,0.1009,0.0554,0.0231,-0.0093,-0.0093,-0.0205,-0.0198,-0.0191,-0.0187,-0.0201,-0.0278,-0.0278,-0.0278,-0.0279,-0.0279,0,0.039,0.0457,0.0553,0.0714,0.0808,0.0845,0.103,0.1148,0.1336,0.1418,0.1478,0.1211,0.0933,0.0603,0.0122,-0.0193,-0.0184,-0.0285,-0.0186,-0.0178,-0.0171,-0.0162,-0.0249,-0.0249,-0.025,-0.025,0,0,0.0404,0.05,0.0568,0.0734,0.0826,0.0966,0.1079,0.127,0.1397,0.1486,0.1487,0.1422,0.1037,0.0694,0.0291,0.0035,-0.0002,-0.0025,-0.002,0.0151,0.0162,-0.0103,-0.0079,0,0,0,0,0]}],[{"header":{"parameterUnit":"m.s-1","parameterCategory":2,"la1":30.2991,"la2":30.254,"lo1":-89.0895,"lo2":-89.0444,"dy":0.0017,"dx":0.0017,"nx":28,"ny":28,"refTime":"2025-09-18T03:00:00:Z","depth":"4","parameterNumber":2,"parameterNumberName":"U-component_of_CURRENTS"},"data":[0,0,0,0,0,0,0,0,0,0,0,0,0,0,0,0,0,0,0,0,0,0,0,0,0,0,0,0,0,0,0,0,0,0,0,0,0,0,0,0,0,0,0,0,0,0,0,0,0,0,0,0,0,0,0,0,0,0,0.139,0.139,0,0.1438,0.1439,0.144,0.149,0.149,0.1491,0.1491,0.1565,0.1567,0.1568,0,0,0,0,0,0,0,0,0,0,0,0,0,0.1316,0.1317,0.1389,0.139,0.1391,0.1438,0.1439,0.144,0.149,0.149,0.1491,0.1492,0.1565,0.1567,0.1568,0,0,0,0,0,0,0,0,0,0,0,0,0,0.1355,0.1318,0.1389,0.1421,0.1424,0.1438,0.1439,0.144,0.1489,0.149,0.1491,0.1492,0.1564,0.1567,0.1569,0.1563,0,0,0.1575,0.1576,0,0,0,0,0,0,0,0,0.1353,0.1358,0.1415,0.1418,0.1422,0.1458,0.144,0.1482,0.1489,0.1465,0.1492,0.1493,0.1531,0.1536,0.1544,0.1567,0.157,0.1575,0.1576,0.1577,0.1578,0,0,0,0,0,0,0,0.135,0.1356,0.141,0.1416,0.142,0.1424,0.1431,0.1448,0.1493,0.1467,0.1471,0.1475,0.1533,0.1541,0.1546,0.1571,0.1575,0.1577,0.1578,0.1579,0.1689,0.169,0,0,0,0,0,0,0.1343,0.1354,0.1408,0.1411,0.1388,0.1425,0.1433,0.1446,0.1493,0.15,0.1474,0.1477,0.1537,0.1543,0.1549,0.1633,0.1577,0.1579,0.1581,0.1687,0.1689,0.1691,0,0,0,0,0,0,0.1342,0.1348,0.1406,0.1382,0.139,0.1425,0.144,0.1447,0.1486,0.1497,0.1506,0.151,0.1538,0.1546,0.1593,0.1632,0.158,0.1582,0.1685,0.1688,0.169,0.1744,0,0,0,0,0,0,0.1339,0.1347,0.1374,0.1382,0.1391,0.1432,0.1439,0.1447,0.1484,0.149,0.153,0.1536,0.154,0.159,0.1596,0.1634,0.1584,0.1683,0.1686,0.1689,0.174,0.1748,0.1755,0,0,0,0,0,0.1337,0.1357,0.1375,0.1383,0.1421,0.1433,0.1439,0.1466,0.1486,0.1505,0.1538,0.1536,0.1614,0.1593,0.1599,0.1639,0.1682,0.1685,0.1689,0.1737,0.1747,0.1755,0,0,0,0,0,0,0.1335,0.1364,0.1384,0.1414,0.1433,0.1442,0.1465,0.1483,0.1523,0.1544,0.1554,0.1562,0.1619,0.1621,0.1598,0.1681,0.1649,0.1654,0.1684,0.1693,0.17,0.1725,0.1586,0,0,0,0,0,0.1347,0.138,0.1396,0.1426,0.1435,0.1458,0.1475,0.1496,0.1522,0.1543,0.1573,0.1606,0.1633,0.1657,0.168,0.1723,0.1737,0.1754,0.1762,0.1768,0.1793,0.1853,0.1868,0.1703,0.1703,0.1703,0,0,0.1357,0.1377,0.1399,0.143,0.1448,0.1465,0.1472,0.1507,0.1537,0.1543,0.161,0.1635,0.165,0.1701,0.1727,0.1712,0.1817,0.1772,0.1778,0.18,0.1858,0.1874,0.1889,0.1706,0.1705,0.1705,0,0,0.1367,0.1408,0.143,0.1445,0.148,0.1496,0.1511,0.1545,0.1582,0.1633,0.1652,0.1705,0.1743,0.1772,0.1784,0.1846,0.1852,0.1856,0.1918,0.1976,0.199,0.2003,0.2019,0.2033,0.1862,0.1862,0.1862,0,0.1384,0.1406,0.1437,0.1449,0.1472,0.151,0.1532,0.1565,0.1619,0.1667,0.1664,0.1766,0.1777,0.1846,0.1872,0.1865,0.189,0.188,0.1986,0.1999,0.2012,0.2025,0.204,0.1865,0.1865,0.1865,0.1864,0,0.139,0.1419,0.1429,0.1468,0.1499,0.1525,0.1567,0.163,0.1681,0.1721,0.1819,0.1843,0.1912,0.1918,0.1914,0.2014,0.1998,0.1985,0.1963,0.2032,0.2041,0.2056,0.187,0.1869,0.1868,0.1867,0,0,0.1399,0.1432,0.144,0.146,0.1516,0.1538,0.1613,0.1691,0.1762,0.1827,0.1915,0.1972,0.2019,0.2038,0.2052,0.2101,0.2191,0.2093,0.2095,0.2109,0.2307,0.2138,0.2137,0.2207,0.221,0.2213,0.227,0,0.14,0.1428,0.145,0.1493,0.1512,0.1581,0.1644,0.1732,0.1814,0.1911,0.1975,0.2058,0.2051,0.2104,0.2156,0.2194,0.2237,0.2176,0.2241,0.2242,0.2084,0.2151,0.2224,0.2281,0.2284,0.2286,0.2288,0,0.1389,0.1418,0.1459,0.152,0.1538,0.158,0.1721,0.1779,0.1922,0.1999,0.2111,0.2161,0.2269,0.2237,0.2352,0.2322,0.2332,0.234,0.2342,0.2182,0.2101,0.2205,0.2314,0.2312,0.231,0.2308,0.2306,0,0.1374,0.1417,0.146,0.1478,0.1559,0.162,0.1681,0.1823,0.1892,0.2073,0.215,0.2281,0.2351,0.2412,0.2434,0.2422,0.2523,0.2498,0.2348,0.2335,0.2445,0.243,0.2574,0.2574,0.2574,0.2574,0.2574,0,0.1344,0.1375,0.1461,0.1481,0.1552,0.1621,0.1724,0.1824,0.1963,0.2044,0.2195,0.2267,0.2407,0.2466,0.2478,0.245,0.2563,0.2378,0.2352,0.246,0.2448,0.2453,0.2438,0.2576,0.2575,0.2575,0.2575,0,0.1281,0.1347,0.139,0.1496,0.1538,0.1589,0.1711,0.1771,0.1941,0.2053,0.2116,0.2292,0.2388,0.2463,0.2552,0.2482,0.2483,0.2434,0.2534,0.2509,0.2246,0.2234,0.2299,0.2294,0.229,0.2286,0.2283,0,0.1235,0.125,0.138,0.1406,0.1447,0.1538,0.159,0.1755,0.1813,0.2032,0.2056,0.222,0.2317,0.231,0.2405,0.2425,0.2388,0.2368,0.2327,0.2257,0.2226,0.222,0.2214,0.2276,0.2275,0.2274,0.2272,0,0.1115,0.1182,0.1229,0.1304,0.1362,0.1415,0.1502,0.1548,0.173,0.1891,0.1979,0.2049,0.214,0.2216,0.2241,0.2243,0.2382,0.2322,0.2331,0.2293,0.2229,0.2202,0.2201,0.2257,0.2259,0.2261,0.2262,0,0.1023,0.1038,0.1115,0.117,0.1228,0.1257,0.1339,0.141,0.1508,0.1756,0.1772,0.1951,0.2108,0.2118,0.2134,0.2138,0.2116,0.2048,0.2071,0.2089,0.1993,0.188,0.1796,0,0,0,0,0,0.0914,0.0929,0.0956,0.1025,0.1066,0.1118,0.1246,0.1338,0.1537,0.1548,0.1665,0.1745,0.1828,0.1914,0.1879,0.2031,0.2109,0.1979,0.2037,0.2173,0.2191,0.2098,0,0,0,0,0,0,0.0851,0.0873,0.0917,0.0872,0.0886,0.0936,0.1025,0.1167,0.1198,0.1407,0.1463,0.1617,0.172,0.182,0.1834,0.1859,0.1856,0.2087,0.2082,0.2163,0.2179,0.2193,0.2104,0,0,0,0,0]},{"header":{"parameterUnit":"m.s-1","parameterCategory":2,"la1":30.2991,"la2":30.254,"lo1":-89.0895,"lo2":-89.0444,"dy":0.0017,"dx":0.0017,"nx":28,"ny":28,"refTime":"2025-09-18T03:00:00:Z","depth":"4","parameterNumber":3,"parameterNumberName":"V-component_of_CURRENTS"},"data":[0,0,0,0,0,0,0,0,0,0,0,0,0,0,0,0,0,0,0,0,0,0,0,0,0,0,0,0,0,0,0,0,0,0,0,0,0,0,0,0,0,0,0,0,0,0,0,0,0,0,0,0,0,0,0,0,0,0,0.0046,0.0046,0,0.0022,0.0021,0.0021,0.0005,0.0005,0.0005,0.0005,-0.0034,-0.0035,-0.0036,0,0,0,0,0,0,0,0,0,0,0,0,0,0.005,0.005,0.0046,0.0046,0.0046,0.0022,0.0021,0.0021,0.0005,0.0005,0.0005,0.0005,-0.0034,-0.0035,-0.0036,0,0,0,0,0,0,0,0,0,0,0,0,0,0.0038,0.005,0.0046,0.0036,0.0035,0.0022,0.0021,0.0021,0.0005,0.0005,0.0005,0.0005,-0.0033,-0.0035,-0.0036,-0.0046,0,0,-0.0041,-0.0042,0,0,0,0,0,0,0,0,0.0039,0.0038,0.0037,0.0036,0.0035,0.0017,0.0009,-0.0002,0.0005,0.0015,0.0005,0.0005,-0.0017,-0.002,-0.0026,-0.0048,-0.005,-0.0041,-0.0042,-0.0043,-0.0043,0,0,0,0,0,0,0,0.004,0.0038,0.0035,0.0037,0.0036,0.0023,0.0021,0.0006,-0.0002,0.0014,0.0013,0.0012,-0.0018,-0.0025,-0.0028,-0.005,-0.0041,-0.0043,-0.0044,-0.0044,-0.0081,-0.0081,0,0,0,0,0,0,0.0047,0.0039,0.0036,0.0035,0.0038,0.0023,0.0021,0.0022,-0.0002,-0.0005,0.0012,0.0012,-0.0022,-0.0026,-0.0029,-0.0029,-0.0043,-0.0044,-0.0045,-0.0081,-0.0081,-0.0081,0,0,0,0,0,0,0.0047,0.0047,0.0037,0.0037,0.0035,0.0023,0.0024,0.0022,0.0018,-0.0003,-0.0006,0.0012,-0.0022,-0.0027,-0.0039,-0.0031,-0.0045,-0.0046,-0.008,-0.0081,-0.0081,-0.0036,0,0,0,0,0,0,0.0047,0.0047,0.0051,0.0038,0.0036,0.0038,0.0024,0.0021,0.0018,0.0017,-0.0005,-0.0008,-0.0023,-0.0036,-0.004,-0.0033,-0.0048,-0.008,-0.0081,-0.0081,-0.0038,-0.0035,-0.0032,0,0,0,0,0,0.0047,0.0053,0.0051,0.0051,0.0041,0.0038,0.0036,0.0026,0.0018,0.0021,0.0003,-0.0008,-0.004,-0.0037,-0.0042,-0.0035,-0.008,-0.0081,-0.0081,-0.0039,-0.0035,-0.0032,0,0,0,0,0,0,0.0058,0.0052,0.005,0.0054,0.0051,0.0036,0.0037,0.0029,0.0017,0.0014,-0.0008,-0.0012,-0.0022,-0.0037,-0.0034,-0.0047,-0.0062,-0.0063,-0.0029,-0.0026,-0.0023,-0.0014,-0.0049,0,0,0,0,0,0.0063,0.0065,0.0059,0.0063,0.0063,0.005,0.0047,0.0041,0.0028,0.0023,0.0008,-0.0011,-0.0027,-0.0032,-0.005,-0.0054,-0.0085,-0.0054,-0.0052,-0.0049,-0.0046,-0.0088,-0.0089,-0.0081,-0.0081,-0.0081,0,0,0.0068,0.0065,0.0067,0.0066,0.0061,0.0068,0.0048,0.0047,0.0053,0.002,0.0021,-0.0004,-0.0028,-0.0035,-0.004,-0.0044,-0.0069,-0.0049,-0.0047,-0.0045,-0.0089,-0.0089,-0.009,-0.0081,-0.0081,-0.0081,0,0,0.0082,0.0078,0.0087,0.0089,0.0087,0.008,0.0082,0.0071,0.0067,0.0062,0.0038,0.0018,-0.0001,-0.0017,-0.0028,-0.0023,-0.0058,-0.0028,-0.0,-0.0042,-0.0043,-0.0044,-0.0089,-0.0095,-0.0021,-0.0021,-0.0021,0,0.0089,0.0101,0.0089,0.0101,0.0108,0.0089,0.0105,0.0098,0.0085,0.008,0.0069,0.0027,0.0008,-0.0006,-0.0002,-0.0015,-0.0048,-0.0008,-0.0038,-0.004,-0.0042,-0.0088,-0.0095,-0.0019,-0.0019,-0.002,-0.002,0,0.0111,0.0124,0.013,0.0141,0.0145,0.0154,0.0149,0.0148,0.0136,0.0122,0.0102,0.0069,0.0046,0.0036,0.0021,0.0001,-0.0021,-0.0033,-0.0043,-0.004,-0.0089,-0.0097,-0.0016,-0.0017,-0.0017,-0.0018,0,0,0.0119,0.0142,0.0145,0.0166,0.0169,0.0179,0.0186,0.0187,0.0192,0.0164,0.0161,0.0126,0.0099,0.0084,0.0057,0.0025,-0.0017,-0.0003,-0.0006,-0.0043,-0.0116,-0.0102,-0.0109,-0.0035,-0.0036,-0.0037,-0.0146,0,0.0142,0.0177,0.018,0.0219,0.0239,0.0234,0.0245,0.0241,0.0226,0.0216,0.017,0.0154,0.0121,0.0112,0.0072,0.0006,-0.0035,0.0013,-0.0118,-0.0122,-0.0106,-0.0116,-0.004,-0.0152,-0.0154,-0.0155,-0.0156,0,0.0162,0.0187,0.0228,0.0268,0.0276,0.0296,0.0313,0.0322,0.0297,0.0281,0.0246,0.0208,0.0161,0.0132,0.0014,0.0045,-0.003,-0.0087,-0.0093,-0.0099,-0.0122,-0.0157,-0.0171,-0.017,-0.0169,-0.0168,-0.0167,0,0.0175,0.0221,0.0257,0.0272,0.0308,0.0329,0.0348,0.034,0.0357,0.0324,0.0321,0.0245,0.0216,0.0113,0.0,0.0004,-0.014,-0.0151,-0.0216,-0.0217,-0.0216,-0.0214,-0.0243,-0.0243,-0.0242,-0.0242,-0.0242,0,0.0196,0.0229,0.0273,0.0298,0.0354,0.0363,0.041,0.0409,0.0411,0.0432,0.0361,0.0351,0.021,0.0117,0.0005,-0.0128,-0.0142,-0.0215,-0.0242,-0.0196,-0.019,-0.0223,-0.0219,-0.0246,-0.0245,-0.0244,-0.0244,0,0.0205,0.0228,0.0284,0.0338,0.0364,0.0405,0.0474,0.0505,0.0492,0.0516,0.0511,0.0424,0.0302,0.0152,-0.0023,-0.011,-0.0244,-0.0291,-0.0236,-0.0257,-0.0298,-0.0291,-0.0372,-0.0373,-0.0373,-0.0373,-0.0374,0,0.0213,0.0242,0.0321,0.0368,0.0402,0.047,0.0521,0.0545,0.0581,0.0564,0.0578,0.047,0.0395,0.0155,-0.0011,-0.0236,-0.0264,-0.034,-0.0314,-0.0292,-0.0311,-0.0303,-0.0295,-0.0374,-0.0374,-0.0374,-0.0374,0,0.0246,0.0271,0.0322,0.0411,0.0483,0.0564,0.0638,0.067,0.0692,0.068,0.0639,0.0514,0.0369,0.0173,-0.0007,-0.0166,-0.0291,-0.0343,-0.0344,-0.032,-0.0296,-0.0312,-0.0304,-0.0375,-0.0375,-0.0375,-0.0375,0,0.028,0.0316,0.0383,0.0464,0.0555,0.0639,0.0673,0.072,0.075,0.0728,0.071,0.0547,0.0446,0.0208,0.0045,-0.0112,-0.0148,-0.0194,-0.0202,-0.0203,-0.0117,-0.0059,-0.0091,0,0,0,0,0,0.032,0.0365,0.0436,0.053,0.0616,0.0665,0.0747,0.077,0.0788,0.0774,0.0746,0.0614,0.0372,0.0258,0.0105,0.0032,-0.0183,-0.0153,-0.024,-0.0381,-0.038,-0.0306,0,0,0,0,0,0,0.0347,0.042,0.0441,0.057,0.0635,0.0736,0.0786,0.0796,0.0788,0.0772,0.0645,0.0578,0.0339,0.0459,0.0102,0.0052,-0.0023,-0.0271,-0.0274,-0.0382,-0.0381,-0.038,-0.0304,0,0,0,0,0]}]]